Вернуться в каталог

COSMOS 1275 DEB

АктивенPO
NORAD 39965·DEBRIS·🇷🇺 Russia

Запущен Jun 4, 1981 с Plesetsk Cosmodrome

Loading…

Ближайшие Пролёты (ближайшие 24 часа)

TLE

СвежийSource: Space-Track

Эпоха: Sep 14, 2026, 03:09 UTC

1 39965U 81053PB  26257.13148473  .00000520  00000-0  44636-3 0  9995
2 39965  82.9692 185.9821 0045464  88.3180 335.4256 13.84528143618928

Отслеживайте COSMOS 1275 DEB в реальном времени с AllMySat

Download on the App Store